TimeCDT,TemperatureF,Dew PointF,Humidity,Sea Level PressureIn,VisibilityMPH,Wind Direction,Wind SpeedMPH,Gust SpeedMPH,PrecipitationIn,Events,Conditions,WindDirDegrees,DateUTC
12:15 AM,55.6,55.4,99,29.91,2.5,Calm,Calm,-,N/A,,Overcast,0,2013-07-26 05:15:00
12:35 AM,55.6,55.6,100,29.91,2.0,Calm,Calm,-,N/A,,Overcast,0,2013-07-26 05:35:00
12:55 AM,55.6,55.4,99,29.91,2.5,Calm,Calm,-,N/A,,Overcast,0,2013-07-26 05:55:00
1:15 AM,55.6,55.6,100,29.91,4.0,NNE,3.5,-,N/A,,Overcast,20,2013-07-26 06:15:00
1:35 AM,55.6,55.4,99,29.89,4.0,Calm,Calm,-,N/A,,Overcast,0,2013-07-26 06:35:00
1:55 AM,55.8,55.6,99,29.88,5.0,Calm,Calm,-,N/A,,Overcast,0,2013-07-26 06:55:00
2:15 AM,55.8,55.6,99,29.87,4.0,Calm,Calm,-,N/A,,Overcast,0,2013-07-26 07:15:00
2:35 AM,55.9,55.8,99,29.87,1.5,Calm,Calm,-,N/A,,Overcast,0,2013-07-26 07:35:00
2:55 AM,56.3,56.1,99,29.87,1.5,SSW,3.5,-,N/A,,Overcast,210,2013-07-26 07:55:00
3:15 AM,56.3,55.9,99,29.86,1.0,SW,5.8,-,N/A,,Overcast,220,2013-07-26 08:15:00
3:35 AM,56.3,56.1,99,29.86,1.2,SW,4.6,-,N/A,,Overcast,230,2013-07-26 08:35:00
3:55 AM,56.3,56.3,100,29.87,1.0,SSW,4.6,-,N/A,,Overcast,210,2013-07-26 08:55:00
4:15 AM,56.3,56.3,100,29.87,1.0,SW,5.8,-,N/A,,Overcast,220,2013-07-26 09:15:00
4:35 AM,56.3,56.3,100,29.87,1.0,SW,3.5,-,N/A,,Overcast,220,2013-07-26 09:35:00
4:55 AM,56.3,56.3,100,29.87,1.0,SW,3.5,-,N/A,,Overcast,230,2013-07-26 09:55:00
5:15 AM,56.3,56.3,100,29.87,1.0,South,3.5,-,N/A,,Overcast,190,2013-07-26 10:15:00
5:35 AM,56.3,56.3,100,29.87,0.8,Calm,Calm,-,N/A,,Overcast,0,2013-07-26 10:35:00
5:55 AM,56.5,56.5,100,29.87,0.8,SW,3.5,-,N/A,,Overcast,230,2013-07-26 10:55:00
6:15 AM,56.7,56.7,100,29.88,3.0,SW,3.5,-,N/A,,Overcast,220,2013-07-26 11:15:00
6:35 AM,57.2,57.0,99,29.88,7.0,SSW,4.6,-,N/A,,Overcast,200,2013-07-26 11:35:00
6:55 AM,57.2,56.8,99,29.88,10.0,SW,4.6,-,N/A,,Overcast,230,2013-07-26 11:55:00
7:15 AM,57.2,56.7,98,29.89,10.0,WSW,3.5,-,N/A,,Overcast,240,2013-07-26 12:15:00
7:35 AM,57.4,57.0,99,29.89,10.0,SW,3.5,-,N/A,,Overcast,230,2013-07-26 12:35:00
7:55 AM,57.4,56.8,98,29.89,10.0,SW,3.5,-,N/A,,Overcast,230,2013-07-26 12:55:00
8:15 AM,57.4,57.2,99,29.89,3.0,NE,4.6,-,N/A,,Overcast,40,2013-07-26 13:15:00
8:35 AM,56.3,56.3,100,29.89,2.5,NE,5.8,-,N/A,,Overcast,40,2013-07-26 13:35:00
8:55 AM,55.4,55.0,99,29.90,4.0,NE,6.9,-,N/A,,Overcast,50,2013-07-26 13:55:00
9:15 AM,54.7,54.5,99,29.90,4.0,NE,6.9,-,N/A,,Overcast,50,2013-07-26 14:15:00
9:35 AM,55.4,55.0,99,29.91,5.0,ENE,4.6,-,N/A,,Overcast,60,2013-07-26 14:35:00
9:55 AM,55.4,55.0,99,29.92,7.0,NE,5.8,-,N/A,,Overcast,50,2013-07-26 14:55:00
10:15 AM,55.2,54.7,98,29.92,5.0,NE,9.2,-,0.01,,Overcast,50,2013-07-26 15:15:00
10:35 AM,54.7,54.5,99,29.94,4.0,NE,9.2,-,0.01,,Overcast,50,2013-07-26 15:35:00
10:55 AM,54.5,53.8,97,29.94,2.5,NE,9.2,20.7,0.07,Rain,Heavy Rain,40,2013-07-26 15:55:00
11:15 AM,54.0,53.1,97,29.94,3.0,ENE,11.5,20.7,0.06,Rain,Rain,60,2013-07-26 16:15:00
11:35 AM,54.3,53.6,97,29.96,10.0,NE,10.4,16.1,0.08,Rain,Light Rain,50,2013-07-26 16:35:00
11:55 AM,55.6,54.1,95,29.96,10.0,NE,11.5,17.3,0.08,,Overcast,50,2013-07-26 16:55:00
12:15 PM,56.1,54.0,92,29.97,10.0,NE,11.5,16.1,N/A,,Overcast,40,2013-07-26 17:15:00
12:35 PM,56.1,53.1,89,29.98,10.0,NE,11.5,17.3,N/A,,Overcast,50,2013-07-26 17:35:00
12:55 PM,57.4,53.8,88,29.99,10.0,ENE,11.5,-,N/A,,Overcast,70,2013-07-26 17:55:00
1:15 PM,57.4,53.4,87,29.99,10.0,ENE,10.4,17.3,N/A,,Overcast,70,2013-07-26 18:15:00
1:35 PM,58.8,54.0,84,29.99,10.0,ENE,11.5,16.1,N/A,,Overcast,60,2013-07-26 18:35:00
1:55 PM,56.3,54.1,92,30.01,4.0,ENE,9.2,-,0.01,Rain,Light Rain,60,2013-07-26 18:55:00
2:15 PM,55.6,54.5,96,30.01,4.0,NE,5.8,-,0.01,,Light Drizzle,50,2013-07-26 19:15:00
2:35 PM,55.6,54.5,96,30.01,7.0,NNE,5.8,-,0.02,,Light Drizzle,30,2013-07-26 19:35:00
2:55 PM,55.8,54.7,96,30.02,7.0,NE,6.9,-,0.03,Rain,Light Rain,50,2013-07-26 19:55:00
3:15 PM,56.7,52.0,84,30.02,10.0,North,9.2,18.4,N/A,,Overcast,10,2013-07-26 20:15:00
3:35 PM,57.6,52.0,82,30.02,10.0,North,9.2,16.1,N/A,,Overcast,10,2013-07-26 20:35:00
3:55 PM,57.4,51.3,80,30.02,7.0,NNE,5.8,-,N/A,,Overcast,30,2013-07-26 20:55:00
4:15 PM,57.9,50.7,77,30.02,10.0,NNE,10.4,17.3,N/A,,Overcast,30,2013-07-26 21:15:00
4:35 PM,57.2,48.9,74,30.03,10.0,NNE,9.2,19.6,N/A,,Overcast,20,2013-07-26 21:35:00
4:55 PM,58.1,48.0,69,30.04,10.0,NNE,12.7,18.4,N/A,,Overcast,30,2013-07-26 21:55:00
5:15 PM,56.5,47.7,72,30.05,10.0,NNE,11.5,16.1,N/A,,Overcast,30,2013-07-26 22:15:00
5:35 PM,56.7,47.3,71,30.06,10.0,North,13.8,19.6,N/A,,Overcast,10,2013-07-26 22:35:00
5:55 PM,55.8,48.0,75,30.06,10.0,North,10.4,-,N/A,,Overcast,360,2013-07-26 22:55:00
6:15 PM,56.8,49.5,76,30.07,10.0,North,8.1,-,N/A,,Overcast,10,2013-07-26 23:15:00
6:35 PM,55.8,47.7,74,30.07,10.0,North,8.1,-,N/A,,Overcast,10,2013-07-26 23:35:00
6:55 PM,55.0,48.2,78,30.08,10.0,North,16.1,23.0,N/A,,Overcast,10,2013-07-26 23:55:00
7:15 PM,53.8,46.0,75,30.09,10.0,North,13.8,21.9,N/A,,Overcast,10,2013-07-27 00:15:00
7:35 PM,54.1,45.7,73,30.09,10.0,North,10.4,16.1,N/A,,Overcast,360,2013-07-27 00:35:00
7:55 PM,53.6,45.3,74,30.10,10.0,NNE,9.2,18.4,N/A,,Overcast,20,2013-07-27 00:55:00
8:15 PM,52.9,45.1,75,30.10,10.0,North,8.1,-,N/A,,Overcast,10,2013-07-27 01:15:00
8:35 PM,52.7,44.4,73,30.10,10.0,NNE,8.1,-,N/A,,Overcast,20,2013-07-27 01:35:00
8:55 PM,52.2,44.8,76,30.09,10.0,NNE,9.2,-,N/A,,Overcast,20,2013-07-27 01:55:00
9:15 PM,52.2,45.1,77,30.09,10.0,NNE,5.8,-,N/A,,Overcast,20,2013-07-27 02:15:00
9:35 PM,51.8,45.3,79,30.09,10.0,NNE,10.4,-,N/A,,Overcast,20,2013-07-27 02:35:00
9:55 PM,52.2,45.5,78,30.09,10.0,NNE,6.9,-,N/A,,Overcast,30,2013-07-27 02:55:00
10:15 PM,52.2,45.7,79,30.09,10.0,NNE,5.8,-,N/A,,Overcast,30,2013-07-27 03:15:00
10:35 PM,51.8,45.5,79,30.08,10.0,NNE,6.9,-,N/A,,Overcast,30,2013-07-27 03:35:00
10:55 PM,52.0,45.1,77,30.08,10.0,NNE,8.1,-,N/A,,Overcast,30,2013-07-27 03:55:00
11:15 PM,51.4,45.1,79,30.08,10.0,NNE,8.1,-,N/A,,Overcast,20,2013-07-27 04:15:00
11:35 PM,50.9,45.3,81,30.08,10.0,North,4.6,-,N/A,,Overcast,10,2013-07-27 04:35:00
11:55 PM,50.0,43.9,79,30.07,10.0,North,6.9,-,N/A,,Mostly Cloudy,360,2013-07-27 04:55:00